Location: Axtheid
(49.6213°N, 11.8205°E)
Time: 22:34:19
(UTC+00:00)

Cosmos 2369 Rocket - Pass Details

Date: 18 February 2020
Orbit: 827 x 854 km, 71.0° (Epoch: 09 April)

Event Time Altitude Azimuth Distance (km) Brightness Sun altitude
Exits shadow 02:53:29 16° 351° (N) 2,117 4.4 -33.3°
Maximum altitude 02:57:23 32° 47° (NE) 1,425 3.8 -32.7°
Drops below altitude 10° 03:02:29 10° 110° (ESE) 2,484 5.2 -32.0°
Sets 03:05:11 0° 120° (ESE) 3,416 5.9 -31.6°
